Zurück zum Katalog

SL-14 DEB

AktivPO
NORAD 26030·DEBRIS·🇷🇺 Russia

Gestartet Sep 28, 1991 von Plesetsk Cosmodrome

Loading…

Nächste Überflüge (nächste 24 Stunden)

TLE

AlterndSource: Space-Track

Epoche: Sep 8, 2026, 13:12 UTC

1 26030U 91068AU  26251.55005970  .00000042  00000-0  15827-3 0  9994
2 26030  82.6810 344.6156 0085640  91.0372 283.7124 12.67413404603178

Verfolge SL-14 DEB in Echtzeit mit AllMySat

Download on the App Store